Location: Andiroba
(19.8650°S, 43.9258°W)
Time: 03:14:31
(UTC+00:00)

Cosmos 1725 Rocket - Pass Details

Date: 23 September 2024
Orbit: 962 x 989 km, 82.9° (Epoch: 08 October)

Event Time Altitude Azimuth Distance (km) Brightness Sun altitude
Rises 07:16:12 0° 16° (NNE) 3,680 7.1 -21.4°
Reaches altitude 10° 07:18:53 10° 23° (NNE) 2,739 6.5 -20.8°
Maximum altitude 07:24:38 39° 90° (E) 1,454 5.5 -19.4°
Drops below altitude 10° 07:30:26 10° 156° (SSE) 2,763 6.8 -18.1°
Sets 07:33:08 0° 163° (SSE) 3,715 7.4 -17.4°
